| time (UTC) | temp F | wind direction | speed MPH | gust MPH | rain 1hr in | rain 24hr in | rain mn in | humidity % | barometer mb |
| 20260504050533 | 62 | 0 | 0.0 | 0.0 | 0.00 | 0.00 | 0.00 | 83 | 1019.5 |
| 20260504045531 | 61 | 0 | 0.0 | 0.0 | 0.00 | 0.00 | 0.00 | 83 | 1019.4 |
| 20260504045030 | 62 | 0 | 0.0 | 0.0 | 0.00 | 0.00 | 0.00 | 83 | 1019.5 |
| 20260504044545 | 62 | 0 | 0.0 | 0.0 | 0.00 | 0.00 | 0.00 | 82 | 1019.6 |
| 20260504044030 | 62 | 0 | 0.0 | 0.0 | 0.00 | 0.00 | 0.00 | 82 | 1019.6 |
| 20260504043528 | 62 | 0 | 0.0 | 0.0 | 0.00 | 0.00 | 0.00 | 82 | 1019.6 |
| 20260504043055 | 62 | 0 | 0.0 | 0.0 | 0.00 | 0.00 | 0.00 | 81 | 1019.6 |
| 20260504042528 | 62 | 0 | 0.0 | 1.0 | 0.00 | 0.00 | 0.00 | 80 | 1019.6 |
| 20260504042031 | 63 | 0 | 0.0 | 1.0 | 0.00 | 0.00 | 0.00 | 79 | 1019.6 |
| 20260504041544 | 64 | 12 | 0.0 | 2.0 | 0.00 | 0.00 | 0.00 | 78 | 1019.6 |
| 20260504041031 | 65 | 0 | 0.0 | 3.0 | 0.00 | 0.00 | 0.00 | 77 | 1019.6 |
| 20260504040531 | 65 | 31 | 0.0 | 4.0 | 0.00 | 0.00 | 0.00 | 77 | 1019.7 |
| 20260504040046 | 65 | 51 | 1.0 | 4.0 | 0.00 | 0.00 | 0.00 | 77 | 1019.6 |
| 20260504035531 | 65 | 46 | 1.0 | 4.0 | 0.00 | 0.00 | 0.00 | 76 | 1019.7 |
| 20260504035031 | 66 | 78 | 2.0 | 4.0 | 0.00 | 0.00 | 0.00 | 75 | 1019.7 |
| 20260504034549 | 66 | 80 | 1.0 | 4.0 | 0.00 | 0.00 | 0.00 | 75 | 1019.7 |
| 20260504034030 | 66 | 64 | 1.0 | 4.0 | 0.00 | 0.00 | 0.00 | 75 | 1019.6 |
| 20260504033528 | 66 | 76 | 1.0 | 4.0 | 0.00 | 0.00 | 0.00 | 75 | 1019.6 |
| 20260504033048 | 66 | 84 | 0.0 | 5.0 | 0.00 | 0.00 | 0.00 | 75 | 1019.3 |
| 20260504032532 | 66 | 86 | 1.0 | 5.0 | 0.00 | 0.00 | 0.00 | 75 | 1019.5 |
| 20260504032029 | 66 | 46 | 1.0 | 5.0 | 0.00 | 0.00 | 0.00 | 74 | 1019.4 |
| 20260504031546 | 66 | 78 | 2.0 | 4.0 | 0.00 | 0.00 | 0.00 | 74 | 1019.4 |
| 20260504031028 | 66 | 77 | 1.0 | 3.0 | 0.00 | 0.00 | 0.00 | 74 | 1019.4 |
| 20260504030528 | 67 | 67 | 0.0 | 3.0 | 0.00 | 0.00 | 0.00 | 73 | 1019.5 |
| 20260504030047 | 67 | 56 | 0.0 | 3.0 | 0.00 | 0.00 | 0.00 | 73 | 1019.4 |
| 20260504025531 | 67 | 0 | 1.0 | 5.0 | 0.00 | 0.00 | 0.00 | 72 | 1019.2 |
| 20260504025031 | 67 | 58 | 1.0 | 5.0 | 0.00 | 0.00 | 0.00 | 72 | 1019.2 |
| 20260504024548 | 67 | 71 | 1.0 | 5.0 | 0.00 | 0.00 | 0.00 | 72 | 1019.2 |
| 20260504024030 | 67 | 78 | 2.0 | 8.0 | 0.00 | 0.00 | 0.00 | 72 | 1019.3 |
| 20260504023531 | 67 | 110 | 2.0 | 8.0 | 0.00 | 0.00 | 0.00 | 71 | 1019.2 |
| 20260504023049 | 68 | 69 | 3.0 | 7.0 | 0.00 | 0.00 | 0.00 | 71 | 1019.2 |
| 20260504022533 | 68 | 85 | 2.0 | 9.0 | 0.00 | 0.00 | 0.00 | 71 | 1018.8 |
| 20260504022033 | 68 | 106 | 3.0 | 9.0 | 0.00 | 0.00 | 0.00 | 70 | 1018.9 |
| 20260504021556 | 68 | 87 | 2.0 | 7.0 | 0.00 | 0.00 | 0.00 | 69 | 1018.9 |
| 20260504021030 | 68 | 80 | 1.0 | 8.0 | 0.00 | 0.00 | 0.00 | 69 | 1018.9 |
| 20260504020531 | 69 | 67 | 1.0 | 8.0 | 0.00 | 0.00 | 0.00 | 68 | 1018.7 |
| 20260504020125 | 69 | 57 | 3.0 | 8.0 | 0.00 | 0.00 | 0.00 | 68 | 1018.7 |
| 20260504015529 | 69 | 72 | 5.0 | 8.0 | 0.00 | 0.00 | 0.00 | 67 | 1018.7 |
| 20260504015029 | 69 | 81 | 4.0 | 8.0 | 0.00 | 0.00 | 0.00 | 67 | 1018.5 |
| 20260504014559 | 69 | 84 | 4.0 | 12.0 | 0.00 | 0.00 | 0.00 | 66 | 1018.4 |
| 20260504014030 | 69 | 83 | 5.0 | 12.0 | 0.00 | 0.00 | 0.00 | 65 | 1018.2 |
| 20260504013528 | 70 | 65 | 3.0 | 9.0 | 0.00 | 0.00 | 0.00 | 64 | 1018.3 |
| 20260504013055 | 70 | 77 | 4.0 | 9.0 | 0.00 | 0.00 | 0.00 | 64 | 1018.1 |
| 20260504012531 | 70 | 85 | 4.0 | 12.0 | 0.00 | 0.00 | 0.00 | 63 | 1018.2 |
| 20260504012030 | 70 | 78 | 6.0 | 12.0 | 0.00 | 0.00 | 0.00 | 63 | 1018.0 |
| 20260504011546 | 70 | 78 | 5.0 | 11.0 | 0.00 | 0.00 | 0.00 | 62 | 1017.8 |
| 20260504011030 | 71 | 66 | 4.0 | 10.0 | 0.00 | 0.00 | 0.00 | 62 | 1017.9 |
| 20260504010533 | 71 | 65 | 4.0 | 10.0 | 0.00 | 0.00 | 0.00 | 62 | 1017.9 |
| 20260504010044 | 71 | 79 | 3.0 | 10.0 | 0.00 | 0.00 | 0.00 | 62 | 1017.8 |
| 20260504005531 | 71 | 72 | 4.0 | 10.0 | 0.00 | 0.00 | 0.00 | 61 | 1017.7 |
| 20260504005031 | 71 | 57 | 5.0 | 11.0 | 0.00 | 0.00 | 0.00 | 61 | 1017.8 |
| 20260504004608 | 71 | 96 | 6.0 | 11.0 | 0.00 | 0.00 | 0.00 | 61 | 1017.9 |
| 20260504004031 | 71 | 86 | 6.0 | 11.0 | 0.00 | 0.00 | 0.00 | 60 | 1017.8 |
| 20260504003530 | 72 | 86 | 5.0 | 13.0 | 0.00 | 0.00 | 0.00 | 60 | 1017.7 |
| 20260504003051 | 72 | 67 | 7.0 | 13.0 | 0.00 | 0.00 | 0.00 | 60 | 1017.7 |
| 20260504002530 | 72 | 103 | 5.0 | 11.0 | 0.00 | 0.00 | 0.00 | 60 | 1017.8 |
| 20260504002030 | 72 | 80 | 6.0 | 12.0 | 0.00 | 0.00 | 0.00 | 59 | 1017.7 |
| 20260504001617 | 72 | 87 | 4.0 | 13.0 | 0.00 | 0.00 | 0.00 | 59 | 1017.7 |
| 20260504001030 | 73 | 70 | 5.0 | 13.0 | 0.00 | 0.00 | 0.00 | 58 | 1017.6 |
| 20260504000531 | 73 | 83 | 4.0 | 10.0 | 0.00 | 0.00 | 0.00 | 57 | 1017.7 |
| 20260504000100 | 73 | 94 | 6.0 | 11.0 | 0.00 | 0.00 | 0.00 | 56 | 1017.6 |
| 20260503235531 | 74 | 91 | 5.0 | 11.0 | 0.00 | 0.00 | 0.00 | 56 | 1017.7 |
| 20260503235031 | 74 | 80 | 4.0 | 11.0 | 0.00 | 0.00 | 0.00 | 56 | 1017.7 |
| 20260503234543 | 74 | 76 | 4.0 | 10.0 | 0.00 | 0.00 | 0.00 | 56 | 1017.7 |
| 20260503234031 | 75 | 86 | 5.0 | 10.0 | 0.00 | 0.00 | 0.00 | 55 | 1017.6 |
| 20260503233531 | 75 | 107 | 2.0 | 9.0 | 0.00 | 0.00 | 0.00 | 54 | 1017.5 |
| 20260503233049 | 75 | 46 | 4.0 | 10.0 | 0.00 | 0.00 | 0.00 | 54 | 1017.4 |
| 20260503232530 | 75 | 105 | 4.0 | 11.0 | 0.00 | 0.00 | 0.00 | 54 | 1017.5 |
| 20260503232030 | 76 | 80 | 4.0 | 11.0 | 0.00 | 0.00 | 0.00 | 53 | 1017.3 |
| 20260503231549 | 76 | 82 | 3.0 | 9.0 | 0.00 | 0.00 | 0.00 | 54 | 1017.3 |
| 20260503231031 | 76 | 81 | 4.0 | 9.0 | 0.00 | 0.00 | 0.00 | 53 | 1017.2 |
| 20260503230531 | 76 | 63 | 5.0 | 9.0 | 0.00 | 0.00 | 0.00 | 52 | 1017.3 |
| 20260503230107 | 77 | 111 | 3.0 | 10.0 | 0.00 | 0.00 | 0.00 | 52 | 1017.3 |
| 20260503225530 | 77 | 92 | 5.0 | 11.0 | 0.00 | 0.00 | 0.00 | 52 | 1017.3 |
| 20260503225032 | 77 | 96 | 5.0 | 11.0 | 0.00 | 0.00 | 0.00 | 52 | 1017.2 |
| 20260503224546 | 77 | 103 | 5.0 | 15.0 | 0.00 | 0.00 | 0.00 | 52 | 1017.2 |
| 20260503224034 | 78 | 105 | 4.0 | 15.0 | 0.00 | 0.00 | 0.00 | 51 | 1017.1 |
| 20260503223533 | 78 | 69 | 7.0 | 15.0 | 0.00 | 0.00 | 0.00 | 51 | 1017.2 |
| 20260503223045 | 79 | 74 | 6.0 | 13.0 | 0.00 | 0.00 | 0.00 | 51 | 1017.3 |
| 20260503222529 | 79 | 98 | 5.0 | 12.0 | 0.00 | 0.00 | 0.00 | 50 | 1017.3 |
| 20260503222030 | 79 | 92 | 5.0 | 11.0 | 0.00 | 0.00 | 0.00 | 51 | 1017.3 |
| 20260503221545 | 79 | 85 | 5.0 | 11.0 | 0.00 | 0.00 | 0.00 | 51 | 1017.4 |
| 20260503221030 | 79 | 132 | 5.0 | 12.0 | 0.00 | 0.00 | 0.00 | 51 | 1017.4 |
| 20260503220531 | 79 | 88 | 7.0 | 12.0 | 0.00 | 0.00 | 0.00 | 51 | 1017.4 |
| 20260503220053 | 79 | 86 | 6.0 | 14.0 | 0.00 | 0.00 | 0.00 | 50 | 1017.4 |
| 20260503215530 | 80 | 73 | 6.0 | 14.0 | 0.00 | 0.00 | 0.00 | 49 | 1017.4 |
| 20260503215031 | 80 | 75 | 6.0 | 9.0 | 0.00 | 0.00 | 0.00 | 48 | 1017.2 |
| 20260503214555 | 80 | 321 | 2.0 | 5.0 | 0.00 | 0.00 | 0.00 | 43 | 1017.2 |
| 20260503214035 | 80 | 30 | 2.0 | 6.0 | 0.00 | 0.00 | 0.00 | 43 | 1017.1 |
| 20260503213530 | 80 | 304 | 2.0 | 9.0 | 0.00 | 0.00 | 0.00 | 43 | 1017.2 |
| 20260503213047 | 80 | 285 | 3.0 | 13.0 | 0.00 | 0.00 | 0.00 | 43 | 1017.2 |
| 20260503212530 | 81 | 346 | 6.0 | 13.0 | 0.00 | 0.00 | 0.00 | 43 | 1017.3 |
| 20260503212031 | 81 | 51 | 4.0 | 10.0 | 0.00 | 0.00 | 0.00 | 44 | 1017.2 |
| 20260503211548 | 81 | 67 | 5.0 | 9.0 | 0.00 | 0.00 | 0.00 | 44 | 1017.2 |
| 20260503211030 | 81 | 36 | 1.0 | 8.0 | 0.00 | 0.00 | 0.00 | 44 | 1017.1 |
| 20260503210530 | 80 | 313 | 2.0 | 10.0 | 0.00 | 0.00 | 0.00 | 45 | 1017.1 |
| 20260503210046 | 80 | 31 | 5.0 | 12.0 | 0.00 | 0.00 | 0.00 | 44 | 1017.1 |
| 20260503205531 | 80 | 348 | 4.0 | 12.0 | 0.00 | 0.00 | 0.00 | 43 | 1017.1 |
| 20260503205030 | 81 | 34 | 2.0 | 8.0 | 0.00 | 0.00 | 0.00 | 44 | 1017.2 |
| 20260503204545 | 81 | 344 | 2.0 | 10.0 | 0.00 | 0.00 | 0.00 | 44 | 1017.3 |
| 20260503204031 | 80 | 78 | 1.0 | 11.0 | 0.00 | 0.00 | 0.00 | 45 | 1017.5 |
| 20260503203530 | 80 | 30 | 1.0 | 11.0 | 0.00 | 0.00 | 0.00 | 44 | 1017.4 |
| 20260503203102 | 80 | 39 | 4.0 | 11.0 | 0.00 | 0.00 | 0.00 | 46 | 1017.4 |
| 20260503202530 | 80 | 323 | 4.0 | 10.0 | 0.00 | 0.00 | 0.00 | 44 | 1017.5 |
| 20260503202031 | 80 | 37 | 2.0 | 10.0 | 0.00 | 0.00 | 0.00 | 45 | 1017.5 |
| 20260503201541 | 79 | 34 | 6.0 | 10.0 | 0.00 | 0.00 | 0.00 | 45 | 1017.6 |
| 20260503201032 | 79 | 331 | 4.0 | 12.0 | 0.00 | 0.00 | 0.00 | 46 | 1017.7 |
| 20260503200530 | 79 | 327 | 7.0 | 12.0 | 0.00 | 0.00 | 0.00 | 46 | 1017.9 |
| 20260503200049 | 80 | 18 | 5.0 | 13.0 | 0.00 | 0.00 | 0.00 | 46 | 1017.9 |
| 20260503195530 | 80 | 337 | 8.0 | 13.0 | 0.00 | 0.02 | 0.00 | 46 | 1017.9 |
| 20260503195030 | 80 | 330 | 1.0 | 12.0 | 0.00 | 0.02 | 0.00 | 45 | 1017.8 |
| 20260503194547 | 80 | 355 | 6.0 | 12.0 | 0.00 | 0.02 | 0.00 | 44 | 1017.9 |
| 20260503194030 | 80 | 54 | 3.0 | 14.0 | 0.00 | 0.02 | 0.00 | 48 | 1017.8 |
| 20260503193530 | 80 | 107 | 5.0 | 14.0 | 0.00 | 0.02 | 0.00 | 47 | 1018.1 |
| 20260503193045 | 80 | 34 | 7.0 | 14.0 | 0.00 | 0.02 | 0.00 | 46 | 1018.1 |
| 20260503192530 | 80 | 100 | 3.0 | 8.0 | 0.00 | 0.02 | 0.00 | 47 | 1018.3 |
| 20260503192030 | 80 | 298 | 2.0 | 6.0 | 0.00 | 0.02 | 0.00 | 45 | 1018.4 |
| 20260503191547 | 80 | 0 | 2.0 | 8.0 | 0.00 | 0.02 | 0.00 | 45 | 1018.4 |
| 20260503191030 | 79 | 128 | 2.0 | 11.0 | 0.00 | 0.02 | 0.00 | 47 | 1018.5 |
| 20260503190533 | 79 | 118 | 6.0 | 13.0 | 0.00 | 0.02 | 0.00 | 48 | 1018.7 |
| 20260503190054 | 79 | 135 | 6.0 | 13.0 | 0.00 | 0.02 | 0.00 | 50 | 1018.5 |
| 20260503185530 | 79 | 99 | 3.0 | 8.0 | 0.00 | 0.12 | 0.00 | 49 | 1018.7 |
| 20260503185034 | 80 | 86 | 3.0 | 9.0 | 0.00 | 0.12 | 0.00 | 48 | 1018.7 |
| 20260503184548 | 79 | 104 | 5.0 | 9.0 | 0.00 | 0.12 | 0.00 | 46 | 1018.8 |
| 20260503184030 | 78 | 46 | 2.0 | 12.0 | 0.00 | 0.12 | 0.00 | 49 | 1018.8 |
| 20260503183532 | 78 | 63 | 3.0 | 12.0 | 0.00 | 0.12 | 0.00 | 51 | 1018.8 |
| 20260503183040 | 78 | 343 | 2.0 | 12.0 | 0.00 | 0.12 | 0.00 | 50 | 1018.8 |
| 20260503182530 | 77 | 0 | 6.0 | 12.0 | 0.00 | 0.12 | 0.00 | 47 | 1019.0 |
| 20260503182029 | 77 | 61 | 8.0 | 12.0 | 0.00 | 0.12 | 0.00 | 49 | 1019.1 |
| 20260503181557 | 77 | 325 | 4.0 | 10.0 | 0.00 | 0.12 | 0.00 | 54 | 1019.2 |
| 20260503181030 | 77 | 64 | 5.0 | 10.0 | 0.00 | 0.12 | 0.00 | 53 | 1019.1 |
| 20260503180530 | 77 | 0 | 2.0 | 15.0 | 0.00 | 0.12 | 0.00 | 54 | 1019.1 |
| 20260503180053 | 76 | 304 | 3.0 | 15.0 | 0.00 | 0.12 | 0.00 | 54 | 1019.3 |
| 20260503175530 | 77 | 42 | 3.0 | 10.0 | 0.00 | 0.43 | 0.00 | 54 | 1019.4 |
| 20260503175030 | 78 | 88 | 1.0 | 10.0 | 0.00 | 0.43 | 0.00 | 54 | 1019.5 |
| 20260503174546 | 77 | 130 | 2.0 | 12.0 | 0.00 | 0.43 | 0.00 | 56 | 1019.6 |
| 20260503174030 | 76 | 87 | 6.0 | 13.0 | 0.00 | 0.43 | 0.00 | 56 | 1019.6 |
| 20260503173530 | 76 | 328 | 4.0 | 13.0 | 0.00 | 0.43 | 0.00 | 56 | 1019.7 |
| 20260503173044 | 76 | 319 | 3.0 | 12.0 | 0.00 | 0.43 | 0.00 | 57 | 1019.7 |
| 20260503172529 | 76 | 17 | 4.0 | 12.0 | 0.00 | 0.43 | 0.00 | 57 | 1019.7 |
| 20260503172029 | 75 | 37 | 5.0 | 12.0 | 0.00 | 0.43 | 0.00 | 57 | 1019.8 |
| 20260503171550 | 76 | 83 | 4.0 | 11.0 | 0.00 | 0.43 | 0.00 | 56 | 1020.0 |
| 20260503171029 | 75 | 73 | 4.0 | 15.0 | 0.00 | 0.43 | 0.00 | 61 | 1020.0 |
| 20260503170530 | 75 | 65 | 7.0 | 15.0 | 0.00 | 0.43 | 0.00 | 54 | 1020.0 |
| 20260503150530 | 70 | 69 | 7.0 | 14.0 | 0.00 | 0.43 | 0.00 | 71 | 1020.1 |
| 20260503131031 | 62 | 11 | 2.0 | 5.0 | 0.00 | 0.43 | 0.00 | 89 | 1019.9 |
| 20260503130531 | 62 | 296 | 2.0 | 5.0 | 0.00 | 0.43 | 0.00 | 90 | 1019.7 |
| 20260503110531 | 56 | 28 | 2.0 | 5.0 | 0.00 | 0.43 | 0.00 | 97 | 1018.6 |
| 20260503081550 | 57 | 347 | 1.0 | 4.0 | 0.00 | 0.43 | 0.00 | 96 | 1017.2 |
| 20260503081033 | 57 | 327 | 1.0 | 4.0 | 0.00 | 0.43 | 0.00 | 96 | 1017.2 |
| 20260503080529 | 57 | 12 | 0.0 | 3.0 | 0.00 | 0.43 | 0.00 | 96 | 1017.3 |